timestamp,wind_dir_avg,wind_spd_avg,wind_spd_max_dir,wind_spd_gust,battery_voltage,lat,long
2022-06-05 00:04:01+00:00,12.0,5.13,13.0,5.81,13.13,47.59359,-54.27349
2022-06-05 00:14:01+00:00,17.0,4.34,10.0,4.81,12.57,47.59359,-54.27349
2022-06-05 00:24:01+00:00,22.0,4.97,21.0,5.74,12.57,47.59359,-54.27349
2022-06-05 00:34:01+00:00,17.0,4.62,21.0,5.13,12.57,47.59359,-54.27349
2022-06-05 00:44:01+00:00,7.0,5.36,11.0,7.01,12.57,47.59359,-54.27349
2022-06-05 00:54:01+00:00,10.0,4.85,14.0,5.77,12.57,47.59359,-54.27349
2022-06-05 01:04:01+00:00,12.0,5.3,24.0,6.26,12.57,47.59359,-54.27349
2022-06-05 01:14:00+00:00,9.0,4.14,7.0,4.96,12.41,47.59359,-54.27349
2022-06-05 01:24:00+00:00,4.0,3.68,358.0,4.64,12.41,47.59359,-54.27349
2022-06-05 01:34:00+00:00,2.0,3.06,5.0,3.4,12.41,47.59359,-54.27349
2022-06-05 01:44:00+00:00,354.0,3.95,353.0,4.7,12.41,47.59359,-54.27349
2022-06-05 01:54:00+00:00,343.0,3.38,351.0,3.8,12.41,47.59359,-54.27349
2022-06-05 02:04:00+00:00,342.0,3.39,330.0,3.91,12.41,47.59359,-54.27349
2022-06-05 02:14:00+00:00,322.0,2.43,305.0,3.86,12.41,47.59359,-54.27349
2022-06-05 02:24:00+00:00,297.0,3.76,290.0,5.74,12.41,47.59359,-54.27349
2022-06-05 02:34:00+00:00,313.0,3.35,299.0,4.68,12.41,47.59359,-54.27349
2022-06-05 02:44:00+00:00,310.0,4.09,291.0,6.29,12.41,47.59359,-54.27349
2022-06-05 02:54:00+00:00,281.0,5.08,277.0,6.33,12.41,47.59359,-54.27349
2022-06-05 03:04:00+00:00,274.0,3.98,274.0,5.32,12.41,47.59359,-54.27349
2022-06-05 03:14:00+00:00,272.0,4.03,272.0,5.6,12.33,47.59359,-54.27349
2022-06-05 03:24:00+00:00,274.0,5.64,273.0,5.85,12.33,47.59359,-54.27349
2022-06-05 03:34:00+00:00,274.0,6.09,274.0,6.71,12.33,47.59359,-54.27349
2022-06-05 03:44:00+00:00,279.0,5.4,276.0,6.65,12.33,47.59359,-54.27349
2022-06-05 03:54:00+00:00,283.0,6.06,283.0,6.49,12.33,47.59359,-54.27349
2022-06-05 04:04:00+00:00,274.0,6.19,273.0,6.47,12.33,47.59359,-54.27349
2022-06-05 04:14:01+00:00,275.0,5.79,274.0,7.18,12.25,47.59359,-54.27349
2022-06-05 04:24:01+00:00,269.0,5.52,271.0,5.74,12.25,47.59359,-54.27349
2022-06-05 04:34:01+00:00,272.0,6.04,274.0,6.31,12.25,47.59359,-54.27349
2022-06-05 04:44:01+00:00,282.0,6.15,285.0,6.96,12.25,47.59359,-54.27349
2022-06-05 04:54:01+00:00,265.0,6.4,265.0,6.76,12.25,47.59359,-54.27349
2022-06-05 05:04:01+00:00,265.0,4.78,268.0,6.73,12.25,47.59359,-54.27349
2022-06-05 05:14:01+00:00,264.0,3.85,263.0,6.27,12.25,47.59359,-54.27349
2022-06-05 05:24:01+00:00,262.0,4.26,263.0,4.72,12.25,47.59359,-54.27349
2022-06-05 05:34:01+00:00,248.0,4.57,251.0,5.14,12.25,47.59359,-54.27349
2022-06-05 05:44:01+00:00,248.0,4.03,245.0,4.56,12.25,47.59359,-54.27349
2022-06-05 05:54:01+00:00,257.0,3.83,259.0,5.03,12.25,47.59359,-54.27349
2022-06-05 06:04:01+00:00,259.0,3.96,263.0,4.49,12.25,47.59359,-54.27349
2022-06-05 06:14:00+00:00,269.0,3.64,264.0,5.15,12.25,47.59359,-54.27349
2022-06-05 06:24:00+00:00,254.0,3.99,256.0,4.47,12.25,47.59359,-54.27349
2022-06-05 06:34:00+00:00,255.0,5.13,256.0,5.49,12.25,47.59359,-54.27349
2022-06-05 06:44:00+00:00,256.0,4.43,254.0,5.02,12.25,47.59359,-54.27349
2022-06-05 06:54:00+00:00,262.0,4.94,263.0,5.49,12.25,47.59359,-54.27349
2022-06-05 07:04:00+00:00,268.0,4.25,266.0,4.73,12.25,47.59359,-54.27349
2022-06-05 07:14:00+00:00,268.0,4.72,270.0,5.38,12.25,47.59359,-54.27349
2022-06-05 07:24:00+00:00,285.0,4.65,281.0,5.63,12.25,47.59359,-54.27349
2022-06-05 07:34:00+00:00,285.0,3.72,280.0,5.72,12.25,47.59359,-54.27349
2022-06-05 07:44:00+00:00,286.0,4.45,284.0,5.46,12.25,47.59359,-54.27349
2022-06-05 07:54:00+00:00,283.0,4.8,281.0,5.58,12.25,47.59359,-54.27349
2022-06-05 08:04:00+00:00,282.0,4.69,285.0,5.46,12.25,47.59359,-54.27349
2022-06-05 08:14:00+00:00,271.0,5.0,272.0,6.48,12.25,47.59359,-54.27349
2022-06-05 08:24:00+00:00,273.0,4.91,279.0,5.36,12.25,47.59359,-54.27349
2022-06-05 08:34:00+00:00,279.0,4.48,277.0,5.01,12.25,47.59359,-54.27349
2022-06-05 08:44:00+00:00,287.0,4.61,285.0,5.48,12.25,47.59359,-54.27349
2022-06-05 08:54:00+00:00,301.0,4.7,304.0,5.73,12.25,47.59359,-54.27349
2022-06-05 09:04:00+00:00,302.0,4.32,291.0,5.46,12.25,47.59359,-54.27349
2022-06-05 09:14:00+00:00,307.0,5.38,306.0,5.87,12.73,47.59359,-54.27349
2022-06-05 09:24:00+00:00,316.0,5.29,307.0,6.42,12.73,47.59359,-54.27349
2022-06-05 09:34:00+00:00,301.0,6.18,300.0,7.07,12.73,47.59359,-54.27349
2022-06-05 09:44:00+00:00,298.0,5.54,288.0,6.88,12.73,47.59359,-54.27349
2022-06-05 09:54:00+00:00,313.0,5.15,311.0,5.65,12.73,47.59359,-54.27349
2022-06-05 10:04:00+00:00,308.0,4.69,301.0,5.37,12.73,47.59359,-54.27349
2022-06-05 10:14:01+00:00,309.0,4.4,295.0,6.01,13.53,47.59359,-54.27349
2022-06-05 10:24:01+00:00,306.0,4.22,299.0,5.37,13.53,47.59359,-54.27349
2022-06-05 10:34:01+00:00,313.0,4.64,309.0,5.69,13.53,47.59359,-54.27349
2022-06-05 10:44:01+00:00,297.0,4.83,297.0,6.15,13.53,47.59359,-54.27349
2022-06-05 10:54:01+00:00,301.0,4.77,295.0,6.35,13.53,47.59359,-54.27349
2022-06-05 11:04:01+00:00,323.0,5.46,320.0,6.42,13.53,47.59359,-54.27349
2022-06-05 11:14:00+00:00,322.0,5.73,314.0,6.81,13.37,47.59359,-54.27349
2022-06-05 11:24:00+00:00,328.0,7.07,323.0,7.71,13.37,47.59359,-54.27349
2022-06-05 11:34:00+00:00,322.0,7.0,319.0,8.13,13.37,47.59359,-54.27349
2022-06-05 11:44:00+00:00,322.0,5.31,309.0,6.56,13.37,47.59359,-54.27349
2022-06-05 11:54:00+00:00,310.0,5.53,302.0,6.77,13.37,47.59359,-54.27349
2022-06-05 12:04:00+00:00,334.0,5.89,328.0,6.41,13.37,47.59359,-54.27349
2022-06-05 12:14:00+00:00,334.0,5.22,340.0,6.09,13.6,47.59359,-54.27349
2022-06-05 12:24:00+00:00,319.0,4.71,321.0,5.05,13.6,47.59359,-54.27349
2022-06-05 12:34:00+00:00,325.0,3.82,327.0,4.17,13.6,47.59359,-54.27349
2022-06-05 12:44:00+00:00,330.0,5.28,320.0,6.02,13.6,47.59359,-54.27349
2022-06-05 12:54:00+00:00,330.0,4.72,312.0,5.58,13.6,47.59359,-54.27349
2022-06-05 13:04:00+00:00,321.0,4.04,313.0,4.87,13.6,47.59359,-54.27349
2022-06-05 13:14:00+00:00,327.0,4.23,330.0,5.03,13.76,47.59359,-54.27349
2022-06-05 13:24:00+00:00,329.0,4.51,330.0,5.52,13.76,47.59359,-54.27349
2022-06-05 13:34:00+00:00,339.0,3.56,345.0,3.98,13.76,47.59359,-54.27349
2022-06-05 13:44:00+00:00,330.0,3.66,332.0,4.56,13.76,47.59359,-54.27349
2022-06-05 13:54:00+00:00,8.0,3.49,15.0,4.01,13.76,47.59359,-54.27349
2022-06-05 14:04:00+00:00,348.0,3.09,347.0,3.6,13.76,47.59359,-54.27349
2022-06-05 14:14:00+00:00,334.0,5.42,335.0,5.76,13.68,47.59359,-54.27349
2022-06-05 14:24:00+00:00,335.0,4.8,336.0,5.62,13.68,47.59359,-54.27349
2022-06-05 14:34:00+00:00,337.0,6.14,339.0,6.56,13.68,47.59359,-54.27349
2022-06-05 14:44:00+00:00,338.0,6.56,341.0,6.9,13.68,47.59359,-54.27349
2022-06-05 14:54:00+00:00,326.0,4.73,328.0,5.03,13.68,47.59359,-54.27349
2022-06-05 15:04:00+00:00,315.0,0.01,323.0,0.0,13.68,47.59359,-54.27349
2022-06-05 15:14:00+00:00,325.0,3.92,329.0,4.19,13.6,47.59359,-54.27349
2022-06-05 15:24:00+00:00,3.0,4.0,7.0,4.54,13.6,47.59359,-54.27349
2022-06-05 15:34:00+00:00,5.0,4.89,7.0,5.45,13.6,47.59359,-54.27349
2022-06-05 15:44:00+00:00,2.0,5.52,5.0,6.15,13.6,47.59359,-54.27349
2022-06-05 15:54:00+00:00,359.0,5.66,356.0,6.47,13.6,47.59359,-54.27349
2022-06-05 16:04:00+00:00,351.0,4.78,358.0,5.44,13.6,47.59359,-54.27349
2022-06-05 16:14:00+00:00,0.0,3.74,0.0,3.99,13.6,47.59359,-54.27349
2022-06-05 16:24:00+00:00,1.0,5.77,2.0,6.08,13.6,47.59359,-54.27349
2022-06-05 16:34:00+00:00,353.0,6.34,353.0,7.05,13.6,47.59359,-54.27349
2022-06-05 16:44:00+00:00,358.0,6.87,358.0,7.34,13.6,47.59359,-54.27349
2022-06-05 16:54:00+00:00,346.0,3.85,347.0,4.42,13.6,47.59359,-54.27349
2022-06-05 17:04:00+00:00,335.0,6.03,336.0,6.63,13.6,47.59359,-54.27349
2022-06-05 17:14:01+00:00,17.0,5.33,19.0,6.03,13.6,47.59359,-54.27349
2022-06-05 17:24:01+00:00,10.0,4.45,2.0,5.34,13.6,47.59359,-54.27349
2022-06-05 17:34:01+00:00,357.0,4.38,353.0,5.22,13.6,47.59359,-54.27349
2022-06-05 17:44:01+00:00,5.0,6.0,4.0,6.56,13.6,47.59359,-54.27349
2022-06-05 17:54:01+00:00,345.0,6.67,346.0,7.77,13.6,47.59359,-54.27349
2022-06-05 18:04:01+00:00,3.0,5.27,4.0,6.01,13.6,47.59359,-54.27349
2022-06-05 18:14:00+00:00,0.0,5.56,1.0,5.9,13.6,47.59359,-54.27349
2022-06-05 18:24:00+00:00,343.0,4.41,343.0,4.74,13.6,47.59359,-54.27349
2022-06-05 18:34:00+00:00,343.0,4.51,341.0,4.86,13.6,47.59359,-54.27349
2022-06-05 18:44:00+00:00,355.0,4.0,352.0,4.27,13.6,47.59359,-54.27349
2022-06-05 18:54:00+00:00,354.0,4.75,352.0,5.45,13.6,47.59359,-54.27349
2022-06-05 19:04:00+00:00,5.0,3.19,3.0,3.39,13.6,47.59359,-54.27349
2022-06-05 19:14:00+00:00,5.0,1.67,8.0,1.83,13.68,47.59359,-54.27349
2022-06-05 19:24:00+00:00,17.0,2.13,22.0,2.51,13.68,47.59359,-54.27349
2022-06-05 19:34:00+00:00,3.0,2.09,351.0,2.6,13.68,47.59359,-54.27349
2022-06-05 19:44:00+00:00,337.0,2.33,342.0,2.84,13.68,47.59359,-54.27349
2022-06-05 19:54:00+00:00,317.0,3.08,320.0,3.32,13.68,47.59359,-54.27349
2022-06-05 20:04:00+00:00,292.0,1.93,293.0,2.07,13.68,47.59359,-54.27349
2022-06-05 20:14:01+00:00,260.0,2.21,259.0,2.35,13.6,47.59359,-54.27349
2022-06-05 20:24:01+00:00,241.0,2.97,238.0,3.09,13.6,47.59359,-54.27349
2022-06-05 20:34:01+00:00,315.0,0.01,245.0,0.0,13.6,47.59359,-54.27349
2022-06-05 20:44:01+00:00,315.0,0.01,245.0,0.0,13.6,47.59359,-54.27349
2022-06-05 20:54:01+00:00,315.0,0.01,255.0,0.0,13.6,47.59359,-54.27349
2022-06-05 21:04:01+00:00,315.0,0.01,255.0,0.0,13.6,47.59359,-54.27349
2022-06-05 21:14:00+00:00,232.0,3.12,229.0,3.45,13.53,47.59359,-54.27349
2022-06-05 21:24:00+00:00,315.0,0.01,234.0,0.0,13.53,47.59359,-54.27349
2022-06-05 21:34:00+00:00,315.0,0.01,237.0,0.0,13.53,47.59359,-54.27349
2022-06-05 21:44:00+00:00,315.0,0.01,237.0,0.0,13.53,47.59359,-54.27349
2022-06-05 21:54:00+00:00,280.0,1.91,266.0,2.24,13.53,47.59359,-54.27349
2022-06-05 22:04:00+00:00,344.0,2.97,345.0,3.63,13.53,47.59359,-54.27349
2022-06-05 22:14:00+00:00,350.0,4.24,354.0,4.73,13.29,47.59359,-54.27349
2022-06-05 22:24:00+00:00,359.0,4.95,2.0,5.11,13.29,47.59359,-54.27349
2022-06-05 22:34:00+00:00,21.0,4.99,22.0,5.63,13.29,47.59359,-54.27349
2022-06-05 22:44:00+00:00,23.0,4.7,21.0,5.06,13.29,47.59359,-54.27349
2022-06-05 22:54:00+00:00,42.0,3.66,38.0,4.18,13.29,47.59359,-54.27349
2022-06-05 23:04:00+00:00,22.0,3.77,21.0,4.39,13.29,47.59359,-54.27349
2022-06-05 23:14:01+00:00,25.0,3.2,22.0,3.56,12.97,47.59359,-54.27349
2022-06-05 23:24:01+00:00,35.0,2.97,31.0,3.29,12.97,47.59359,-54.27349
2022-06-05 23:34:01+00:00,31.0,3.41,30.0,3.65,12.97,47.59359,-54.27349
2022-06-05 23:44:01+00:00,33.0,3.58,30.0,4.16,12.97,47.59359,-54.27349
2022-06-05 23:54:01+00:00,33.0,3.14,34.0,3.46,12.97,47.59359,-54.27349
